Dewpoint
-5 -6 -6 -6 -4 -3 -0 1 1 4 2 -1 3 3 4 5 5 6 5 6 6 6 5 2 4 1 3 3 3 2 7 9 7 8 6 3 6 6 7 8 7 9 10 10 13
-6 -6 -6 -6 -4 -3 -1 0 1 2 3 -0 3 3 5 6 6 5 5 6 6 6 4 4 6 4 2 1 2 3 7 8 6 9 4 3 5 6 7 9 11 10 10 11 13
-8 -7 -6 -6 -4 -3 -2 0 2 2 3 0 1 1 5 5 5 3 0 -0 0 2 2 1 6 5 2 1 2 3 6 5 4 7 4 3 5 5 6 6 10 12 12 12 12
-9 -8 -6 -6 -5 -4 -2 0 2 2 2 -0 0 0 4 4 4 1 1 1 1 -0 0 5 6 3 1 1 -0 2 1 2 6 5 4 3 3 4 5 5 5 7 8 11 11
-11 -8 -7 -6 -5 -5 -2 0 1 2 2 0 1 3 3 3 2 2 1 3 1 -0 1 5 6 4 2 0 -1 -0 -0 0 0 2 6 3 1 2 1 4 6 10 10 11 11
-11 -8 -7 -7 -6 -5 -2 -0 -0 1 2 0 0 3 4 3 2 1 4 5 4 0 6 7 6 4 4 1 -1 -1 -1 -1 3 6 7 4 3 0 2 8 10 10 11 11 11
-11 -9 -8 -7 -6 -6 -1 0 -0 -1 -0 1 2 3 2 1 1 1 2 6 6 5 6 4 4 3 3 2 -0 -1 -1 -0 1 4 6 5 7 2 6 10 10 11 12 11 11
-12 -10 -9 -7 -6 -6 -2 -0 1 1 -0 1 2 2 0 0 1 -1 1 5 6 6 5 3 2 2 3 2 -1 -1 -1 2 -0 4 2 7 9 4 8 10 12 11 11 12 10
-9 -8 -8 -9 -6 -6 -5 -0 1 2 2 2 2 2 -0 -0 -1 -1 -0 4 4 4 4 2 1 2 1 -0 1 0 2 1 1 2 2 5 7 4 7 9 11 11 11 11 10
-6 -7 -8 -11 -7 -6 -7 -1 1 1 -0 0 1 1 -1 -0 -0 -1 3 4 3 4 3 1 2 1 1 0 3 2 1 -1 1 2 2 4 2 -1 3 7 8 10 10 10 10
-6 -9 -9 -11 -7 -6 -6 -5 -4 -2 -0 0 -0 -0 -1 -0 0 -1 -0 -0 2 3 3 1 3 1 1 0 -1 -2 -2 -1 -4 -1 1 3 2 -0 0 3 3 7 9 10 10
-7 -11 -11 -9 -7 -6 -5 -3 -3 -3 -1 -0 -1 -0 -1 -0 0 -1 -1 -0 0 2 1 2 3 1 1 1 1 -0 -2 -1 -3 -4 1 2 2 1 -2 -2 1 3 7 8 9
-6 -11 -11 -8 -7 -5 -4 -4 -2 -2 1 -1 -2 -1 -2 -1 -1 -1 -1 -1 -0 1 2 3 3 0 1 -0 -2 -2 -1 -2 -3 -2 -2 1 2 1 -0 -4 -3 0 4 7 8
-6 -8 -10 -5 -4 -3 0 -5 -4 -4 -0 -3 -2 -1 -2 -1 -1 -2 -1 -1 -0 1 1 1 -0 -1 -1 -1 -2 -1 -3 -2 -2 -0 3 -3 2 -5 -1 -2 -4 -3 2 5 5
-4 -5 -6 -7 -8 -5 -6 -6 -6 1 -2 -6 -4 -3 -3 -2 -2 -1 -2 -1 0 1 -0 1 1 1 0 -0 -2 -2 -3 -3 -2 -2 -3 -4 -1 -5 -5 -1 -2 -4 -3 1 4
-5 -4 -5 -4 -3 -6 -7 -7 -2 -1 -4 -4 -4 -3 -3 -2 -2 -2 -2 -1 -1 -1 -1 -0 -1 -0 0 -1 -2 -3 -3 -1 1 1 2 -3 -1 -3 -6 -3 -3 -3 -4 -4 3
-5 -4 -6 -4 -3 -5 -5 -1 0 0 -4 -2 -2 -3 -2 -3 -2 -1 -1 -0 1 1 1 -0 -0 -1 -1 0 -2 -2 -0 2 1 1 2 -1 -1 -3 -6 -2 -1 -3 -4 -5 -1
-4 -4 -6 -5 -3 -3 -0 -3 -1 -2 -0 -2 -1 -1 -1 -3 -3 -1 -1 -0 -2 -1 0 2 1 -0 -1 -0 1 -2 -1 2 -1 4 -1 -3 -0 -0 -1 -0 -1 -3 -5 -5 -4
-4 -4 -4 -8 -5 -2 2 -1 -2 -1 -1 -0 -1 -2 -5 -4 -5 -3 -2 -1 -3 -3 -1 -2 -2 -1 -1 -1 -2 -1 -0 -3 -3 -2 -1 -2 -5 -7 -2 -0 -1 -1 0 0 -0
-5 -3 -3 -7 -5 0 -1 -1 -1 -2 -2 -2 -0 -3 -3 -4 -5 -4 -4 -4 -3 -5 -6 -4 -1 -1 -0 -2 -2 -3 -5 -2 -0 -1 1 -2 -3 -1 -1 0 1 1 0 2 2
-4 -0 -0 -6 -4 -2 -2 -3 -3 -2 -4 -2 -1 -2 -3 -4 -5 -6 -5 -4 -3 -4 -6 -5 -3 -3 -1 0 -2 -2 -3 -4 -3 -2 -2 -4 -1 -3 -3 -1 1 1 0 2 2
-4 -2 -0 -6 -1 -3 -5 -5 -4 -5 -4 -5 -3 -3 -3 -5 -6 -5 -4 -2 -3 -3 -4 -6 -4 -1 -2 -3 -4 -4 -3 -5 -2 -4 -5 -7 -3 -6 -4 -2 -0 1 2 2 3
-9 -2 -1 -5 -6 -5 -3 -5 -5 -6 -6 -6 -5 -5 -6 -6 -6 -6 -5 -2 -3 -3 -3 -5 -5 -2 -3 -3 -5 -4 -3 -5 -5 -3 -4 -4 -5 -6 -3 -0 0 1 2 3 3
-8 -3 1 -1 -4 -4 -3 -5 -4 -6 -7 -7 -7 -8 -8 -8 -7 -7 -8 -4 -3 -3 -3 -5 -5 -4 -2 -5 -5 -4 -4 -3 -5 -1 -4 -4 -6 -9 -4 0 1 2 2 2 2
-4 -3 -1 -9 -1 -2 -3 -3 -3 -3 -5 -7 -6 -7 -8 -7 -7 -7 -9 -7 -2 -2 -4 -5 -3 -5 -5 -6 -6 -6 -5 -4 -3 -3 -4 -7 -8 -10 -10 -3 1 1 1 -0 -1
-6 -1 -0 -3 -3 -2 -2 -2 -2 -4 -4 -4 -5 -5 -6 -6 -7 -5 -5 -4 -7 -3 -4 -5 -4 -5 -5 -8 -8 -7 -7 -6 -4 -3 -4 -5 -4 -7 -8 -6 0 0 -0 -1 -1
-2 -3 -4 -10 -2 -2 -3 -4 -3 -4 -5 -6 -5 -4 -2 -4 -5 -6 -5 -4 -6 -7 -4 -4 -4 -5 -3 -5 -3 -1 -2 -5 -8 -6 -4 -2 -5 -9 -6 -3 -0 -0 -1 -1 -2
Wind_Speed
9 10 12 14 17 20 21 23 24 18 14 11 9 6 4 1 3 2 1 1 3 7 12 4 3 5 5 5 8 4 2 4 7 8 5 2 4 7 8 20 7 7 15 19 38
7 9 10 12 15 19 20 22 24 17 14 11 8 5 4 3 1 1 1 3 8 10 10 5 1 2 2 4 5 4 4 7 4 7 4 5 4 11 8 9 6 14 11 31 40
6 8 9 11 14 18 21 23 24 15 12 11 6 6 4 3 3 7 8 7 9 10 8 6 2 2 4 4 4 4 5 3 2 8 5 2 2 1 19 2 11 27 31 41 39
5 6 7 9 12 17 21 22 22 13 12 11 6 6 5 6 3 9 11 10 12 7 5 4 1 0 2 3 3 2 9 7 2 2 3 2 5 2 4 6 13 23 28 40 38
4 5 6 7 10 15 18 21 21 11 11 11 7 8 6 5 4 11 12 9 8 2 3 3 1 2 1 3 2 4 3 2 7 5 6 3 4 2 2 7 18 26 34 37 34
3 4 6 6 7 12 14 17 20 15 9 10 7 6 7 4 7 9 7 7 5 4 3 1 4 7 6 4 3 1 11 10 3 5 4 1 2 2 3 16 25 29 35 34 32
2 4 6 5 5 8 11 12 15 14 12 11 9 5 9 6 7 9 9 5 4 2 2 4 4 6 6 5 3 2 2 0 5 6 5 9 4 3 10 21 26 28 29 32 30
4 5 6 4 4 6 6 8 10 11 9 11 10 4 3 8 9 11 6 3 0 1 2 1 4 5 4 8 4 5 5 4 4 7 4 7 7 5 18 23 24 27 28 29 28
7 7 7 4 3 5 6 6 7 10 9 7 9 5 4 8 9 10 5 4 3 3 4 2 2 1 4 2 4 6 3 3 1 7 3 1 4 5 22 23 23 27 29 29 28
9 10 7 2 2 4 6 6 5 7 13 4 11 4 8 10 10 10 6 3 4 6 1 1 3 3 4 4 4 1 3 1 3 5 2 5 6 2 24 24 25 27 27 30 30
12 10 5 1 2 3 6 5 5 2 8 4 4 2 8 9 7 8 6 8 5 3 3 3 5 2 5 3 2 4 3 1 3 4 5 9 8 7 14 20 15 21 26 30 27
13 10 5 3 3 3 5 5 5 4 6 3 5 7 7 9 5 7 8 6 4 3 4 4 1 4 4 4 4 4 2 5 5 5 7 4 12 5 7 10 25 27 28 30 26
12 9 5 3 3 3 5 5 4 5 2 6 5 5 5 7 5 7 8 6 2 5 3 1 4 6 3 3 1 1 4 3 4 2 1 5 5 5 7 9 17 22 32 30 34
13 9 5 4 2 3 2 5 4 3 4 6 3 2 5 5 3 5 5 3 4 3 5 4 6 4 2 1 0 0 4 4 4 5 4 4 4 6 6 10 8 28 29 36 34
12 11 7 5 2 1 3 3 2 1 6 6 4 6 4 2 4 3 4 2 2 4 4 5 4 4 2 2 1 5 3 3 2 3 3 0 3 7 2 8 10 17 35 34 36
8 11 8 5 3 4 2 1 1 6 3 6 3 4 4 2 2 2 2 3 3 3 2 5 2 2 2 3 2 3 2 6 4 3 2 3 5 5 5 8 6 11 29 36 33
5 8 8 5 4 3 2 0 5 6 3 7 4 3 3 3 2 1 1 3 1 4 4 4 3 3 2 3 2 2 5 2 3 3 5 2 3 8 3 3 5 10 25 26 26
5 5 8 6 4 3 2 4 8 2 4 3 3 7 3 1 3 2 3 3 2 2 1 2 7 3 4 2 2 1 5 4 4 3 4 1 5 7 1 3 4 8 19 25 21
4 1 7 5 4 3 1 5 4 3 2 5 8 3 4 3 1 1 3 2 2 2 2 2 4 2 1 2 1 1 0 2 4 2 2 4 7 7 1 2 6 10 15 18 19
5 2 5 5 4 3 4 3 4 3 1 1 2 2 3 5 5 1 2 2 2 1 1 2 4 2 2 1 2 2 2 2 2 2 4 5 5 6 6 7 3 3 9 15 19
4 0 2 5 3 2 3 5 4 4 2 3 1 3 3 3 2 3 3 2 3 5 3 1 1 4 1 4 5 1 2 2 2 4 3 2 6 5 5 8 9 9 13 18 20
3 1 2 4 2 2 1 3 2 3 4 3 3 4 3 3 4 2 2 4 2 1 3 2 2 4 8 3 3 4 3 4 4 4 3 3 6 2 3 6 14 13 14 16 17
3 2 2 1 2 1 3 2 3 2 3 2 3 4 0 2 2 3 3 1 2 0 1 2 2 4 7 4 2 4 4 5 2 2 5 4 6 2 2 5 12 20 20 21 21
2 1 2 2 1 3 1 3 2 4 3 3 3 2 2 3 5 4 3 1 2 1 1 1 1 5 5 4 2 4 3 4 6 2 2 7 6 4 5 7 9 19 23 23 22
3 3 2 2 3 3 2 2 2 3 5 5 3 5 4 3 3 4 3 3 2 1 0 2 4 4 7 9 6 7 9 7 7 8 9 7 9 7 8 10 19 23 22 24 24
3 2 2 3 3 4 4 5 7 4 7 4 5 3 6 6 7 5 2 3 4 1 1 1 4 2 5 8 5 6 10 10 9 6 9 7 14 6 8 11 19 27 29 28 26
4 5 3 3 2 4 5 6 6 5 7 7 9 3 5 12 19 19 15 10 6 2 3 3 2 2 5 3 7 7 6 7 5 5 7 9 11 4 4 10 23 30 31 30 27
Wind_Direction
338 340 351 353 357 360 1 4 5 360 350 343 345 354 355 6 186 210 175 323 279 309 318 264 237 215 218 214 192 196 119 194 194 169 235 205 146 150 138 140 140 157 162 169 176
322 328 336 345 351 358 358 1 1 0 355 350 348 352 355 349 122 147 326 299 285 292 303 248 34 48 214 212 211 168 153 203 210 182 234 313 166 151 129 130 82 121 145 162 174
304 318 325 337 347 355 358 360 0 1 4 359 359 353 15 21 84 34 4 344 314 296 279 240 313 359 206 235 215 190 188 230 25 172 231 320 107 159 132 197 178 153 154 164 174
280 305 316 329 345 354 0 1 5 9 15 12 18 21 48 22 56 356 350 336 328 294 240 204 223 175 211 205 231 263 228 245 300 288 355 56 328 281 150 160 194 178 168 170 179
267 300 315 323 344 357 4 8 10 22 26 21 40 50 75 68 11 349 339 334 326 266 184 205 245 348 285 213 300 174 270 313 242 243 253 11 91 322 120 166 173 168 168 175 182
291 314 326 323 347 4 10 22 33 39 36 35 45 50 55 46 357 8 347 1 15 132 137 309 330 329 287 267 156 346 254 250 271 232 218 148 336 54 182 153 159 169 176 180 186
328 331 334 331 354 14 20 25 32 43 50 42 30 48 52 18 22 359 10 1 9 35 28 52 357 325 316 299 295 216 221 338 221 217 232 176 300 219 171 167 163 173 183 187 188
10 349 334 331 340 10 12 21 24 26 21 10 18 38 50 26 0 6 351 1 309 325 244 322 323 300 272 307 325 147 91 138 237 156 259 214 231 204 175 171 171 180 190 198 194
12 350 334 315 311 353 356 339 348 360 2 9 17 26 6 348 354 358 354 19 349 315 291 271 297 279 323 37 24 9 175 168 154 210 136 183 250 189 183 184 179 188 194 199 194
358 343 332 295 308 332 344 345 343 12 4 3 12 354 2 352 356 8 48 2 336 335 334 355 5 47 26 55 189 57 110 118 197 204 181 181 255 237 187 192 192 194 198 203 195
356 356 1 113 8 346 342 338 1 16 9 17 9 2 324 351 348 17 7 354 347 342 31 339 56 200 235 215 230 295 322 328 273 205 148 199 229 220 196 197 197 205 205 206 199
7 15 42 87 42 19 10 49 30 338 325 317 326 321 337 342 338 3 357 7 12 339 315 18 287 246 260 283 273 252 271 283 275 230 181 184 230 225 208 202 209 207 213 213 201
19 24 54 57 41 43 47 38 359 336 304 319 316 311 332 336 338 342 351 348 323 340 332 213 278 324 166 282 296 218 172 235 224 36 130 117 293 211 247 230 218 224 220 219 214
27 25 41 19 54 40 36 8 345 340 61 303 344 334 334 326 331 324 345 355 338 313 347 293 328 333 278 159 1 251 267 256 226 137 196 142 245 255 209 228 204 218 219 221 225
30 26 19 23 13 3 335 351 357 355 45 292 303 319 311 319 300 346 302 310 288 292 58 262 320 345 300 246 208 221 283 285 196 135 85 281 88 267 165 235 216 224 220 225 229
33 26 19 15 15 6 7 34 37 45 304 326 304 318 345 242 264 284 289 271 287 316 305 246 270 208 251 290 243 306 337 33 53 75 38 246 135 276 206 220 233 225 220 221 217
18 27 23 17 7 6 21 8 38 79 348 306 302 332 323 265 274 230 260 301 212 40 345 326 284 280 231 303 322 89 60 7 5 5 215 244 55 244 245 308 256 262 240 219 210
11 12 26 15 12 13 355 52 62 293 288 335 314 309 262 297 259 240 307 302 218 55 29 86 333 331 356 259 218 322 141 151 190 191 242 336 235 249 333 1 310 263 223 205 194
3 358 19 18 12 8 293 51 201 214 268 313 321 338 317 319 251 321 216 249 316 204 170 342 276 276 228 324 349 293 253 186 107 359 40 230 285 305 197 37 60 92 141 155 171
345 190 13 8 5 14 72 215 217 218 282 333 324 20 316 316 345 340 304 289 326 58 89 267 305 234 285 354 260 264 158 53 10 201 250 284 276 234 226 218 189 122 130 144 153
341 285 355 1 351 25 114 227 242 234 232 178 228 290 283 281 264 300 307 338 9 317 316 193 154 288 350 195 192 354 235 149 146 158 201 287 264 214 219 211 190 188 170 167 167
322 338 307 355 44 46 141 201 266 241 225 250 209 221 258 306 302 280 269 225 337 299 322 333 175 262 233 282 203 182 220 179 134 234 219 168 278 335 308 208 178 178 172 170 171
304 271 256 321 127 284 262 255 224 220 241 222 250 219 194 270 309 242 290 239 273 48 194 342 298 331 338 360 330 238 208 173 127 83 215 164 260 357 22 134 182 169 168 165 164
283 1 232 250 211 158 199 245 235 212 249 228 256 257 288 255 208 281 285 279 250 263 222 148 201 196 218 233 211 273 262 234 154 138 235 228 277 271 243 202 186 181 174 173 175
223 239 193 252 252 184 156 290 244 240 218 212 259 218 207 282 277 229 241 300 200 235 241 173 249 205 251 254 245 247 245 221 203 225 200 247 225 247 224 208 193 184 181 177 179
267 227 209 265 235 180 191 233 204 225 164 231 210 196 193 214 213 246 207 212 253 178 229 192 275 303 284 274 231 259 250 234 230 230 257 276 277 240 291 201 187 191 183 183 183
238 254 263 241 199 132 216 220 221 181 240 222 202 190 226 241 255 265 266 246 226 209 207 191 231 322 261 333 322 288 234 216 212 210 204 230 247 208 212 206 192 191 190 190 189
Height
1543 1542 1540 1538 1535 1532 1529 1524 1520 1516 1514 1512 1510 1508 1507 1506 1505 1506 1507 1508 1508 1508 1507 1506 1506 1506 1506 1507 1507 1508 1515 1518 1511 1512 1505 1500 1502 1505 1505 1506 1510 1511 1513 1516 1525
1541 1541 1539 1537 1535 1532 1528 1524 1520 1516 1514 1511 1510 1508 1508 1507 1506 1506 1508 1507 1507 1507 1506 1505 1505 1505 1506 1506 1507 1506 1513 1509 1502 1503 1503 1500 1501 1501 1504 1507 1510 1511 1514 1517 1523
1539 1539 1538 1537 1535 1532 1528 1524 1520 1516 1513 1512 1510 1509 1508 1507 1508 1508 1508 1507 1506 1505 1505 1505 1505 1505 1506 1506 1505 1504 1508 1502 1501 1500 1502 1501 1501 1502 1502 1507 1505 1506 1511 1517 1522
1538 1537 1537 1536 1534 1532 1528 1524 1520 1516 1514 1512 1510 1510 1509 1508 1512 1509 1508 1507 1505 1504 1504 1504 1505 1505 1505 1506 1504 1505 1501 1501 1501 1500 1503 1500 1502 1503 1501 1502 1505 1507 1507 1512 1519
1537 1536 1535 1534 1534 1532 1528 1525 1520 1517 1515 1514 1512 1511 1511 1511 1511 1509 1507 1506 1503 1503 1504 1505 1505 1505 1505 1504 1503 1504 1501 1501 1500 1500 1501 1500 1503 1504 1503 1501 1504 1508 1510 1513 1518
1536 1536 1534 1534 1533 1531 1529 1526 1522 1518 1517 1515 1514 1513 1512 1513 1511 1509 1507 1505 1504 1504 1504 1506 1506 1505 1505 1504 1503 1501 1501 1501 1501 1500 1501 1502 1502 1503 1505 1502 1505 1509 1511 1512 1516
1536 1535 1534 1533 1532 1531 1529 1527 1524 1522 1520 1518 1516 1514 1514 1515 1512 1510 1508 1507 1506 1505 1505 1506 1506 1506 1505 1502 1501 1500 1502 1502 1501 1501 1502 1502 1503 1502 1503 1504 1504 1509 1513 1514 1514
1535 1534 1533 1532 1531 1530 1528 1526 1525 1523 1521 1520 1517 1515 1514 1513 1512 1510 1509 1508 1507 1506 1506 1506 1505 1505 1505 1502 1499 1499 1503 1511 1500 1500 1500 1500 1505 1500 1503 1503 1505 1508 1512 1515 1514
1535 1534 1532 1531 1531 1530 1529 1526 1525 1524 1522 1520 1519 1516 1516 1514 1512 1511 1509 1509 1508 1507 1506 1505 1505 1504 1504 1504 1507 1506 1513 1508 1504 1499 1499 1501 1502 1497 1502 1503 1505 1508 1510 1513 1513
1535 1533 1531 1530 1530 1529 1528 1526 1525 1524 1522 1519 1519 1520 1517 1517 1513 1512 1510 1509 1508 1507 1506 1506 1505 1507 1508 1510 1518 1509 1507 1505 1505 1502 1500 1504 1504 1499 1500 1503 1503 1505 1508 1511 1509
1535 1532 1530 1530 1530 1529 1529 1527 1527 1526 1523 1523 1522 1521 1519 1517 1514 1513 1511 1510 1509 1508 1509 1507 1511 1513 1508 1508 1508 1509 1506 1508 1503 1497 1500 1502 1502 1498 1497 1500 1503 1505 1506 1507 1505
1535 1533 1531 1531 1530 1530 1529 1528 1530 1531 1526 1523 1522 1520 1519 1518 1515 1513 1512 1512 1510 1511 1508 1511 1513 1506 1505 1504 1506 1507 1508 1507 1501 1496 1500 1501 1499 1496 1496 1493 1496 1497 1502 1503 1505
1536 1534 1533 1532 1531 1531 1529 1530 1529 1530 1529 1524 1522 1520 1519 1519 1516 1514 1514 1512 1511 1510 1509 1511 1506 1502 1503 1504 1503 1503 1507 1504 1503 1497 1497 1501 1504 1497 1493 1494 1493 1494 1498 1503 1504
1536 1535 1534 1533 1534 1531 1531 1530 1530 1530 1535 1528 1523 1522 1520 1517 1517 1515 1514 1515 1513 1512 1509 1510 1505 1504 1503 1504 1505 1505 1501 1500 1499 1505 1515 1499 1518 1498 1494 1494 1490 1490 1493 1496 1499
1537 1535 1534 1532 1532 1531 1531 1529 1529 1530 1563 1526 1523 1521 1519 1520 1518 1516 1515 1514 1514 1514 1515 1513 1508 1507 1505 1503 1503 1505 1501 1498 1496 1503 1506 1505 1520 1496 1490 1491 1486 1484 1487 1489 1493
1536 1535 1534 1533 1531 1531 1529 1529 1530 1543 1563 1531 1522 1521 1520 1518 1517 1515 1515 1515 1513 1513 1511 1510 1507 1507 1505 1503 1502 1501 1500 1503 1509 1514 1529 1505 1517 1503 1492 1482 1478 1477 1479 1483 1488
1537 1535 1533 1533 1533 1531 1530 1531 1543 1553 1534 1531 1527 1522 1522 1518 1517 1516 1514 1516 1517 1524 1523 1511 1507 1505 1504 1504 1502 1502 1512 1536 1531 1538 1526 1510 1521 1495 1479 1479 1477 1474 1474 1478 1483
1536 1535 1533 1532 1531 1530 1530 1533 1548 1537 1535 1528 1525 1523 1522 1516 1516 1515 1516 1518 1512 1515 1525 1525 1525 1507 1505 1505 1505 1504 1510 1530 1520 1530 1520 1508 1511 1493 1480 1479 1475 1471 1470 1474 1478
1536 1535 1534 1531 1530 1530 1532 1549 1544 1537 1535 1534 1527 1525 1524 1517 1517 1516 1516 1518 1514 1512 1519 1519 1513 1505 1505 1505 1506 1503 1510 1507 1516 1520 1520 1512 1496 1480 1479 1479 1478 1476 1475 1475 1478
1535 1533 1534 1532 1531 1530 1533 1540 1538 1533 1532 1532 1534 1528 1528 1525 1522 1518 1516 1515 1514 1512 1513 1512 1519 1506 1504 1504 1504 1504 1505 1515 1525 1514 1513 1512 1504 1494 1484 1482 1481 1482 1481 1481 1483
1534 1533 1532 1531 1530 1531 1541 1540 1533 1532 1532 1532 1531 1531 1527 1525 1523 1520 1518 1515 1515 1513 1512 1511 1516 1512 1507 1507 1506 1509 1506 1508 1512 1516 1512 1514 1505 1480 1478 1477 1479 1481 1483 1484 1486
1533 1533 1532 1530 1533 1534 1536 1533 1533 1530 1530 1530 1529 1528 1527 1524 1523 1518 1517 1514 1513 1513 1514 1513 1516 1519 1507 1501 1501 1501 1502 1504 1515 1505 1514 1514 1502 1475 1473 1472 1475 1480 1483 1486 1489
1531 1531 1531 1530 1534 1534 1531 1531 1530 1531 1530 1529 1529 1527 1525 1525 1526 1519 1516 1513 1513 1512 1513 1514 1517 1528 1506 1506 1502 1501 1498 1498 1505 1510 1506 1507 1494 1476 1474 1474 1475 1478 1482 1485 1489
1532 1532 1530 1530 1529 1529 1529 1528 1527 1527 1527 1528 1527 1527 1525 1523 1521 1519 1515 1513 1513 1513 1513 1513 1517 1516 1520 1503 1501 1500 1497 1497 1498 1521 1502 1498 1483 1477 1476 1475 1476 1477 1480 1484 1488
1529 1528 1528 1531 1528 1528 1529 1528 1527 1525 1526 1525 1525 1524 1524 1525 1520 1519 1514 1512 1512 1512 1513 1513 1516 1515 1508 1504 1503 1499 1496 1494 1504 1489 1491 1476 1480 1471 1471 1472 1472 1475 1480 1482 1485
1530 1528 1526 1526 1524 1525 1526 1525 1524 1521 1522 1523 1524 1518 1521 1523 1517 1515 1513 1514 1511 1513 1512 1513 1512 1508 1507 1495 1497 1497 1492 1491 1490 1487 1488 1484 1478 1469 1467 1468 1472 1473 1476 1479 1483
1527 1527 1526 1523 1523 1525 1522 1518 1517 1517 1514 1513 1514 1517 1518 1513 1511 1510 1509 1508 1507 1509 1512 1513 1513 1510 1502 1494 1494 1490 1481 1482 1481 1479 1476 1481 1465 1464 1465 1466 1465 1468 1473 1477 1482